Preview of NWS' New Version of Forecast
This preview is not operational and should not be used for support decisions.

Regional Weather Roundup (RWR)

Issued by Gray - Portland, ME (GYX)

                            
706 
ASUS41 KGYX 210810
RWRGYX
WEATHER ROUNDUP FOR MAINE AND NEW HAMPSHIRE
NATIONAL WEATHER SERVICE GRAY ME
400 AM EDT SAT APR 21 2018

MEZ002-005-006-010-012-015-018-020-021-024-026-027-029-210900-
MAINE
  
CITY           SKY/WX    TMP DP  RH WIND       PRES   REMARKS
PORTLAND       FAIR      34  27  75 SW3       30.21R                  
SANFORD        FAIR      35  27  72 NW7       30.23R                  
BAR HARBOR     CLOUDY    38  32  79 NW6       30.14R                  
WISCASSET      FAIR      33  29  85 CALM      30.19S                  
ROCKLAND       CLOUDY    37  28  70 W6        30.16R                  
FRYEBURG       MOCLDY    29  27  92 CALM      30.21R                  
LEWISTONAUBURN FAIR      36  26  67 N5        30.19S                  
AUGUSTA        FAIR      36  26  67 NW6       30.17R                  
WATERVILLE     FAIR      35  26  69 NW3       30.14R                  
BANGOR         FAIR      36  30  79 W6        30.14R                  
GREENVILLE       N/A     32  28  85 NW12      30.09R                  
MILLINOCKET    MOCLDY    35  28  75 W5        30.12S                  
HOULTON        CLOUDY    35  30  82 NW5       30.06S                  
PRESQUE ISLE   FAIR      33  28  81 W9        30.07S                  
FRENCHVILLE    FAIR      32  24  72 NW12      30.05R                  
CARIBOU        FAIR      33  27  78 NW10      30.05S                  
$$

NHZ002-005-008-009-011-012-014-210900-
NEW HAMPSHIRE
  
CITY           SKY/WX    TMP DP  RH WIND       PRES   REMARKS
PORTSMOUTH     PTCLDY    37  27  65 W7        30.22R                  
ROCHESTER      FAIR      36  28  73 W7        30.22R                  
NASHUA         FAIR      36  27  69 CALM      30.27R                  
MANCHESTER     FAIR      40  26  57 W3        30.25R                  
CONCORD        FAIR      34  26  72 NW5       30.25R                  
LACONIA        FAIR      30  28  92 CALM      30.24R                  
PLYMOUTH       FAIR      31  28  88 W3        30.25R                  
BERLIN         CLOUDY    30  26  85 CALM      30.19R                  
WHITEFIELD     MOCLDY    28  27  96 CALM      30.22R                  
JAFFREY        FAIR      33  27  78 SW3       30.25R                  
KEENE          FAIR      27  24  89 S3        30.29R                  
LEBANON        CLOUDY    36  26  67 CALM      30.26R                  
MT WASHINGTON  SNOWSHWR  12  12 100 NW47G64     N/A  VSB 0   WCI -13  
$$

VTZ005-007-008-210900-
VERMONT
  
CITY           SKY/WX    TMP DP  RH WIND       PRES   REMARKS
ST JOHNSBURY     N/A     30  28  92 MISG      30.23R                  
MONTPELIER     CLOUDY    35  24  64 W7        30.28R                  
BURLINGTON     CLOUDY    37  29  72 CALM      30.29R                  
$$

MAZ007-012-024-CTZ003-RIZ002-NYZ038-NYZ072-210900-
SOUTHERN NEW ENGLAND AND NY
  
CITY           SKY/WX    TMP DP  RH WIND       PRES   REMARKS
BOSTON         FAIR      39  27  62 W14       30.27R                  
WORCESTER      FAIR      33  23  66 W13       30.26R                  
NANTUCKET      MOCLDY    40  30  67 NW12      30.26R                  
PROVIDENCE     FAIR      39  27  62 W7        30.30R                  
HARTFORD       FAIR      35  25  66 N3        30.32R                  
ALBANY         FAIR      35  24  64 NW6       30.34R                  
NEW YORK CITY  FAIR      42  26  53 NW10      30.38R                  
$$

ANZ081-ANZ082-ANZ150-NHZ014-MEZ023>029-210900-
COASTAL MARINE OBSERVATIONS
  
STATION/POSITION TIME  TEMP    WIND        PRES    WAVE
                       AIR SEA DIR/SP/G            HT/PER
                 (UTC) (F)     (DEG/KT/KT) (MB)    (FT/S)
MOUNT DESERT ROC 0800   40     300/ 14/ 16 1020.5R
MATINICUS ROCK   0800   41     310/ 16/ 17 1020.7R
ISLE OF SHOALS   0800   39     290/ 15/ 17 1023.2R
JEFFREYS LEDGE   0736      41                N/A     3/ 4
CASHES LEDGE BUO 0750   40 41              1021.2R   4/ 6
$$

.............KEY..............
   WCI - WIND CHILL
   TC  - TEMPERATURE IN CELSIUS
   VSB - VISIBILITY IN MILES
   HX  - HEAT INDEX
   FAIR- INDICATES FEW OR NO CLOUDS BELOW 12,000 FT, WITH NO 
         SIGNIFICANT WEATHER AND/OR OBSTRUCTIONS TO VISIBILITY.